Theta_e
352 352 353 352 351 348 347 343 339 339 339 339 339 340 343 344 345 351 351 352 352 351 353 352 353 353 352 348 345 346 345 345 348 350 352 352 352 351 351 351 351 351 351
353 353 352 351 351 349 343 343 341 340 341 342 342 343 344 345 348 352 353 353 352 352 352 352 352 353 352 353 353 349 343 337 349 350 350 351 352 351 351 353 350 347 348
353 353 352 349 349 349 344 343 341 341 343 344 344 350 351 353 350 348 351 351 352 352 350 350 349 350 352 352 352 353 350 342 350 352 349 349 350 347 348 349 347 347 347
353 353 350 349 347 347 344 344 348 351 352 352 347 348 352 354 354 353 353 353 352 351 350 350 350 352 351 350 348 352 351 351 348 345 348 351 351 349 348 347 346 347 347
353 352 351 347 347 349 351 350 349 349 348 348 349 353 352 351 353 353 352 353 351 352 353 351 341 347 351 350 349 350 348 348 348 345 343 343 348 350 351 350 350 348 346
352 349 351 347 351 351 351 350 354 354 350 348 349 352 346 352 351 350 351 351 349 350 352 351 352 350 347 340 343 344 344 344 344 335 332 340 342 349 350 350 350 349 349
351 349 351 350 350 351 351 353 352 353 352 352 352 350 348 347 341 337 341 345 346 350 351 342 343 345 347 344 339 340 341 343 340 337 332 344 340 341 348 350 352 347 348
346 349 350 351 351 350 353 353 353 352 351 351 352 351 342 338 340 340 337 339 345 345 350 345 342 342 342 342 343 341 341 342 340 338 337 338 342 342 347 349 350 348 350
349 346 349 352 353 353 351 353 352 352 350 348 348 347 348 338 332 333 334 337 340 343 346 349 345 344 345 346 344 340 341 341 339 339 336 336 342 340 343 344 341 346 348
349 350 348 350 352 350 351 353 352 353 351 349 348 346 344 342 337 336 333 335 337 341 345 349 351 351 348 347 343 341 342 342 338 337 338 337 341 338 342 343 340 343 345
350 349 343 351 348 349 347 350 352 352 351 348 345 338 336 339 339 337 333 332 337 338 343 348 350 350 351 350 345 345 347 343 342 342 343 342 343 341 343 342 342 342 340
350 351 350 347 346 346 349 352 350 351 346 340 344 343 341 336 336 335 336 336 337 339 340 342 346 345 350 343 342 343 344 341 342 338 339 341 342 342 344 342 341 345 343
350 349 347 349 348 346 347 348 349 348 346 342 340 346 344 343 340 337 336 339 339 338 338 340 338 341 344 345 344 342 343 339 339 340 342 340 343 344 341 341 346 348 348
352 351 350 349 348 349 347 347 347 345 345 342 342 342 345 344 343 342 337 334 336 335 334 337 338 341 342 343 344 344 337 335 340 339 337 341 342 344 342 343 350 349 349
351 352 351 349 348 350 350 347 345 340 340 339 343 342 343 344 344 343 342 338 333 333 334 335 337 339 344 345 344 344 344 342 344 343 342 343 344 344 342 343 350 350 349
350 350 351 350 347 350 351 350 348 343 344 342 342 343 343 344 345 345 343 343 341 337 338 337 334 339 344 345 345 345 345 345 345 345 345 345 344 342 341 343 350 350 349
350 350 350 350 349 349 352 351 348 346 344 346 344 343 344 344 346 346 344 343 343 342 343 342 346 343 345 345 345 345 345 345 345 345 345 345 345 343 341 342 343 347 348
349 350 350 350 349 349 348 348 348 348 347 346 342 345 345 344 345 346 346 346 346 344 343 344 345 346 343 343 346 345 343 344 345 346 346 346 346 345 342 342 341 342 344
349 350 351 351 349 348 348 348 348 349 348 345 345 345 345 344 345 345 346 347 346 346 344 344 345 344 344 345 346 346 346 345 346 347 346 346 347 346 343 342 340 337 341
348 349 350 350 349 348 349 350 349 350 350 349 348 345 345 343 343 346 342 343 347 347 347 346 346 346 347 347 347 346 346 345 345 346 346 347 347 347 348 345 341 338 340
348 349 351 352 351 351 352 352 351 350 351 351 350 349 346 344 343 345 343 341 346 348 347 348 348 348 347 346 346 346 346 345 345 346 345 347 347 347 347 347 345 340 337
348 349 351 351 351 351 350 353 352 351 351 350 349 347 347 345 345 345 345 341 346 348 348 347 348 348 347 346 346 345 342 343 344 345 346 347 348 347 346 348 347 347 341
349 350 351 351 351 352 352 353 353 352 352 350 349 345 345 347 346 346 346 344 343 346 347 345 346 348 346 346 347 345 343 344 342 344 347 348 347 347 346 346 347 347 347
351 351 351 351 352 352 353 354 353 355 353 352 350 351 351 350 347 343 342 346 344 345 345 345 346 346 345 345 346 345 346 347 342 341 344 347 348 348 348 347 346 347 346
353 354 355 353 353 353 355 355 354 355 354 353 352 352 352 352 350 345 344 348 348 345 343 343 346 347 345 345 345 345 347 348 347 343 342 339 346 345 346 347 347 347 346
348 358 359 355 354 354 353 353 349 345 351 355 354 353 352 352 352 352 347 346 347 344 344 344 342 343 342 342 346 346 347 347 346 344 341 344 342 343 343 342 343 344 343
Wind_Speed
20 24 27 28 29 29 30 30 30 30 29 30 30 31 30 27 24 21 19 17 15 14 15 15 14 14 15 17 18 18 18 19 19 18 17 17 17 16 16 17 18 19 18
28 26 29 30 29 29 31 29 29 29 31 30 29 28 26 24 22 20 18 18 16 15 16 16 15 15 16 17 17 17 17 18 17 14 12 12 15 13 15 15 15 16 15
29 29 30 32 30 28 29 29 28 28 29 29 28 27 24 23 23 23 19 17 17 16 16 15 15 15 15 15 14 15 15 17 16 12 10 13 12 11 13 14 15 15 15
31 31 32 31 31 29 29 28 27 26 24 24 26 27 25 21 21 23 20 18 17 15 15 14 14 14 13 12 14 14 14 13 14 10 11 11 9 10 11 12 14 14 13
31 31 31 31 31 28 27 27 27 27 26 25 25 22 22 21 16 22 19 17 16 15 14 12 11 11 11 10 10 11 10 8 11 9 7 7 8 8 10 10 12 12 12
31 31 30 30 28 27 26 27 24 24 24 23 22 21 22 19 18 18 18 16 13 12 12 11 9 8 9 7 7 8 6 5 4 11 9 7 9 11 10 11 10 10 10
30 28 28 28 27 26 25 24 23 22 22 21 21 22 21 19 17 17 15 13 12 11 9 8 6 5 6 6 3 2 5 2 1 2 16 10 10 11 12 10 11 11 11
31 28 27 26 27 25 23 22 21 19 18 18 17 17 18 17 15 12 11 10 9 10 7 4 3 3 3 2 2 4 3 4 2 10 11 15 13 12 12 12 13 12 11
30 28 27 25 23 23 23 21 19 18 16 15 15 14 14 12 10 4 2 5 8 7 5 3 1 0 0 2 3 2 5 2 9 13 13 24 20 17 13 14 13 13 13
32 29 28 26 24 25 23 20 18 16 14 13 12 12 12 11 8 8 7 7 7 6 5 3 2 3 4 4 3 4 5 8 13 10 13 20 19 20 17 16 15 14 14
29 30 29 29 26 25 23 21 19 17 15 14 13 14 13 14 11 10 10 13 8 7 5 3 3 4 5 6 5 5 4 7 8 12 11 13 17 20 17 17 18 16 14
26 30 30 30 29 26 23 23 23 21 17 15 16 16 14 14 14 14 12 17 13 7 6 5 5 6 8 8 6 7 4 5 7 13 14 17 20 23 21 19 19 19 16
33 30 32 31 30 30 28 27 25 23 19 17 15 18 16 13 13 14 14 15 16 13 9 8 7 8 12 13 9 6 5 8 13 16 13 17 18 17 17 19 19 20 18
30 31 33 31 31 31 29 28 28 26 25 22 19 17 18 16 12 11 13 17 17 17 16 11 11 10 14 10 12 9 7 14 15 14 15 19 18 17 17 17 19 21 20
29 32 34 32 32 33 31 29 29 24 25 21 19 18 19 18 16 12 11 13 19 18 19 17 13 13 13 14 14 12 10 10 11 11 13 15 20 18 16 17 17 21 21
29 31 36 34 32 34 33 31 27 21 23 24 21 19 19 18 21 17 12 12 14 17 18 21 21 18 17 14 15 14 13 16 17 16 9 15 15 15 17 17 17 20 21
35 37 37 39 35 34 35 32 31 21 20 26 25 22 21 20 17 17 16 14 13 16 17 17 16 17 18 18 17 15 15 13 19 20 14 12 11 17 19 19 18 21 21
34 36 41 36 38 37 35 36 31 22 23 25 23 25 24 21 18 18 18 15 15 14 19 18 19 19 21 21 18 20 13 13 15 18 19 13 13 18 20 19 19 19 19
36 39 38 36 38 38 38 35 29 25 23 24 21 27 23 21 20 18 19 18 12 12 18 21 23 19 17 18 18 16 18 14 15 16 16 18 15 17 19 19 18 19 19
35 37 37 39 38 37 36 31 28 22 21 20 21 24 22 21 19 19 16 18 15 14 15 15 18 18 19 15 11 14 12 16 14 15 18 20 21 18 20 21 21 21 20
35 34 36 38 38 35 29 28 23 24 21 21 20 22 23 22 23 22 22 14 15 14 16 14 15 16 17 16 12 13 16 13 18 19 21 18 22 19 21 21 22 23 21
38 33 36 39 37 35 33 30 23 21 21 21 21 21 24 23 24 26 25 15 17 17 17 17 16 13 14 13 7 4 3 8 12 17 19 18 21 18 21 23 23 25 23
30 34 38 39 37 36 33 29 17 16 14 21 23 24 26 25 27 26 25 24 20 19 20 19 19 19 16 11 13 6 1 4 4 6 16 19 18 20 22 24 25 27 27
26 32 37 38 37 35 33 29 27 23 18 20 24 24 23 23 26 27 25 23 22 21 22 21 19 18 15 15 9 13 15 7 1 4 3 14 19 23 24 28 30 28 28
16 25 34 35 34 34 32 29 29 24 23 18 20 21 21 21 21 25 27 26 25 25 23 22 22 19 17 19 15 9 9 15 14 4 3 4 11 15 22 26 29 31 32
13 17 28 34 37 35 31 29 30 28 25 22 20 22 24 23 23 25 28 29 28 25 25 26 24 25 22 22 22 19 16 8 5 7 3 6 6 7 14 21 26 30 34
Wind_Direction
143 141 136 131 126 125 125 126 125 124 122 120 120 120 118 117 114 114 115 121 123 117 110 109 111 113 114 113 116 118 119 117 114 117 120 122 124 120 118 120 119 118 116
144 142 137 133 131 130 130 127 125 124 122 120 120 120 119 117 114 111 108 109 110 106 106 109 111 113 111 113 117 116 114 122 114 113 114 115 118 126 128 120 119 119 121
143 142 139 136 136 135 133 130 127 125 124 122 118 113 113 116 115 110 106 105 102 105 107 110 110 113 110 115 114 114 111 117 113 114 111 125 132 126 130 130 125 125 127
145 143 143 143 142 140 137 132 126 125 123 121 122 121 116 115 118 115 110 107 104 103 107 110 115 113 111 116 121 114 113 118 117 116 122 120 130 134 133 136 131 130 131
147 148 147 149 145 142 136 133 134 136 135 133 127 122 121 120 113 110 110 106 107 109 106 104 112 115 115 124 129 123 119 126 160 140 130 152 164 152 152 148 137 133 135
152 152 153 152 147 145 143 140 139 137 137 136 133 129 126 123 121 112 112 109 105 105 104 111 111 108 111 128 151 144 123 174 172 202 203 194 189 173 166 162 156 147 151
153 153 155 153 150 149 148 145 143 143 142 141 140 135 131 129 128 126 119 116 119 109 99 107 117 129 131 151 161 176 149 208 121 276 185 192 193 192 178 179 175 164 167
154 155 157 156 155 154 151 150 149 150 151 151 150 145 143 139 127 120 131 132 124 121 109 108 131 140 143 187 212 226 215 190 238 233 222 219 198 216 198 192 186 176 179
156 156 158 159 161 159 161 158 159 160 159 161 161 162 159 157 139 104 175 160 149 140 136 129 136 218 239 271 273 307 299 226 237 247 242 237 215 216 216 204 198 187 184
159 160 161 163 163 171 168 168 170 171 168 170 172 173 179 182 246 231 245 210 187 167 164 153 220 266 282 291 322 278 238 209 237 259 217 214 214 210 225 219 206 195 193
161 164 165 165 173 171 175 178 180 183 180 188 203 209 205 211 211 202 231 224 208 187 188 217 245 251 280 291 293 279 242 240 225 235 230 233 215 217 230 227 217 205 201
166 170 171 172 174 172 178 179 188 186 190 211 217 221 224 227 225 231 244 218 209 203 223 244 256 262 268 279 315 279 267 261 244 238 247 231 222 234 238 232 221 215 209
173 173 180 181 178 178 184 189 190 195 202 206 224 222 232 234 233 237 229 211 218 223 243 251 257 271 282 275 282 303 242 226 261 256 241 230 236 236 227 232 225 217 211
173 178 182 185 185 187 189 195 200 207 207 217 229 223 227 232 229 229 224 218 221 227 243 250 263 290 281 288 274 273 277 272 264 261 250 252 239 237 235 232 229 219 214
178 182 186 186 188 190 192 195 202 219 213 223 231 230 230 236 240 237 236 229 231 237 244 249 266 281 283 291 264 275 258 272 259 283 247 238 243 238 238 241 229 218 213
183 187 191 189 193 197 197 201 205 208 220 227 233 229 228 234 237 240 240 240 238 237 242 252 261 271 283 273 266 263 258 269 250 245 252 241 238 230 236 240 232 218 215
190 192 187 195 194 204 204 205 206 222 221 224 230 231 233 237 235 231 235 236 246 239 240 247 266 258 264 273 270 266 264 246 235 236 236 244 241 240 232 236 235 225 221
192 188 190 190 197 204 206 206 208 222 218 219 231 231 232 238 243 241 237 237 244 243 234 239 248 257 267 265 273 277 275 263 244 237 238 242 241 240 231 227 230 229 225
191 185 187 190 195 202 207 207 211 214 218 222 233 227 229 233 235 247 244 244 237 244 231 237 245 251 261 268 271 296 270 244 236 233 240 239 240 240 236 230 230 229 225
190 191 188 189 197 201 201 205 208 205 219 228 221 218 228 233 237 240 245 246 233 233 235 239 235 240 245 261 272 282 279 246 252 238 244 244 237 235 239 239 230 232 230
192 191 187 192 199 200 195 199 195 201 213 224 224 226 224 231 230 236 238 247 231 234 236 241 232 229 238 251 266 274 271 267 268 255 250 238 240 234 238 238 235 238 234
194 195 190 196 202 203 202 203 203 207 219 225 221 224 227 225 226 234 238 254 237 240 243 240 235 231 234 239 224 218 307 289 258 243 237 238 240 246 236 240 240 241 240
194 195 197 201 205 206 206 204 201 210 226 223 225 230 228 227 227 232 236 244 243 240 247 247 247 234 242 231 219 201 151 235 323 241 235 236 242 236 239 245 245 245 242
196 197 202 203 205 204 207 204 204 207 206 222 226 227 226 228 230 232 236 237 237 240 244 244 247 246 250 245 228 238 241 249 191 327 257 236 240 239 241 243 246 240 244
193 193 203 202 201 204 204 208 207 218 227 234 233 236 235 232 234 233 233 234 236 235 241 247 245 247 247 255 252 250 250 251 253 217 278 292 236 249 242 246 245 243 241
172 192 204 204 204 203 203 207 211 217 228 229 234 232 235 234 236 235 234 236 236 241 245 244 242 245 244 250 259 262 256 255 247 217 223 275 254 254 229 240 241 241 238